sat.trackr.live / text

‹ back to catalog

STARLINK-38046

NORAD 69746 · 2026-150H

PAYLOAD ACTIVE UNKNOWN

§ Identity

Operator
Country
US
Launch date
2026-07-02
Launch site
AFWTR
Launch vehicle
Mass (kg)
RCS (m²)

Purposes: comms

External: N2YO · Heavens-Above · Gunter

§ Orbital elements

Epoch: 2026-09-19T19:16:19.692480Z

Period
93.91 min
Inclination
97.2854°
Eccentricity
0.0002137
Mean motion
15.33451360 rev/d
Perigee alt
464.1 km
Apogee alt
467.0 km
Semi-major
6,843.7 km
B*
4.3406e-4
RAAN
101.8104°
Arg perigee
95.5387°
Mean anomaly
264.6099°
Rev number
1,363

§ Raw data

STARLINK-380461 69746U 26150H   26262.80300570  .00013967  00000+0  43406-3 0  99922 69746  97.2854 101.8104 0002137  95.5387 264.6099 15.33451360 13634

JSON: /api/v1/satellites/69746 · /tle

For live sub-satellite position, see the globe view (requires WebGL).

§ Visibility from observer

Set your observer location to see the next 7 days of passes ≥ 10°. The values pass through the URL so the page stays shareable.

No JS? Fill the form by hand. The geolocation button needs JavaScript.